| time (UTC) | temp F | wind direction | speed MPH | gust MPH | rain 1hr in | rain 24hr in | rain mn in | humidity % | barometer mb |
| 20260509221552 | 74 | 252 | 2.0 | 10.0 | 0.00 | 0.00 | 0.00 | 28 | 1002.5 |
| 20260509220055 | 74 | 240 | 3.0 | 13.0 | 0.00 | 0.00 | 0.00 | 30 | 1002.4 |
| 20260509214554 | 75 | 52 | 4.0 | 9.0 | 0.00 | 0.00 | 0.00 | 28 | 1002.1 |
| 20260509213103 | 75 | 276 | 3.0 | 13.0 | 0.00 | 0.00 | 0.00 | 29 | 1001.7 |
| 20260509211603 | 75 | 285 | 1.0 | 14.0 | 0.00 | 0.00 | 0.00 | 30 | 1001.7 |
| 20260509204558 | 74 | 312 | 6.0 | 14.0 | 0.00 | 0.00 | 0.00 | 29 | 1001.7 |
| 20260509203056 | 74 | 304 | 4.0 | 13.0 | 0.00 | 0.00 | 0.00 | 29 | 1001.6 |
| 20260509201558 | 73 | 259 | 1.0 | 11.0 | 0.00 | 0.00 | 0.00 | 31 | 1001.7 |
| 20260509194556 | 74 | 302 | 3.0 | 13.0 | 0.00 | 0.00 | 0.00 | 31 | 1002.0 |
| 20260509193052 | 73 | 293 | 6.0 | 19.0 | 0.00 | 0.00 | 0.00 | 30 | 1002.1 |
| 20260509191550 | 73 | 260 | 3.0 | 10.0 | 0.00 | 0.00 | 0.00 | 29 | 1002.2 |
| 20260509190050 | 73 | 254 | 4.0 | 8.0 | 0.00 | 0.00 | 0.00 | 30 | 1001.8 |
| 20260509184551 | 73 | 249 | 2.0 | 9.0 | 0.00 | 0.00 | 0.00 | 34 | 1001.9 |
| 20260509183135 | 72 | 288 | 2.0 | 10.0 | 0.00 | 0.00 | 0.00 | 33 | 1002.0 |
| 20260509181608 | 73 | 269 | 3.0 | 11.0 | 0.00 | 0.00 | 0.00 | 32 | 1002.0 |
| 20260509180052 | 72 | 286 | 2.0 | 9.0 | 0.00 | 0.00 | 0.00 | 32 | 1002.2 |
| 20260509174550 | 72 | 262 | 2.0 | 7.0 | 0.00 | 0.00 | 0.00 | 42 | 1002.2 |
| 20260509173051 | 72 | 257 | 0.0 | 5.0 | 0.00 | 0.00 | 0.00 | 45 | 1002.2 |
| 20260509171600 | 71 | 266 | 1.0 | 6.0 | 0.00 | 0.00 | 0.00 | 48 | 1002.4 |
| 20260509170057 | 70 | 275 | 2.0 | 9.0 | 0.00 | 0.00 | 0.00 | 47 | 1002.4 |
| 20260509164559 | 70 | 0 | 0.0 | 5.0 | 0.00 | 0.00 | 0.00 | 52 | 1002.4 |
| 20260509163057 | 69 | 0 | 1.0 | 4.0 | 0.00 | 0.00 | 0.00 | 54 | 1002.4 |
| 20260509161554 | 68 | 278 | 0.0 | 6.0 | 0.00 | 0.00 | 0.00 | 57 | 1002.3 |
| 20260509160052 | 66 | 298 | 0.0 | 4.0 | 0.00 | 0.00 | 0.00 | 60 | 1002.4 |
| 20260509154556 | 65 | 236 | 1.0 | 5.0 | 0.00 | 0.00 | 0.00 | 65 | 1002.3 |
| 20260509153052 | 64 | 226 | 0.0 | 4.0 | 0.00 | 0.00 | 0.00 | 66 | 1002.3 |
| 20260509151552 | 63 | 263 | 0.0 | 4.0 | 0.00 | 0.00 | 0.00 | 64 | 1002.5 |
| 20260509150054 | 62 | 0 | 0.0 | 4.0 | 0.00 | 0.00 | 0.00 | 67 | 1002.5 |
| 20260509144552 | 61 | 0 | 0.0 | 5.0 | 0.00 | 0.00 | 0.00 | 69 | 1002.6 |
| 20260509143058 | 60 | 307 | 0.0 | 8.0 | 0.00 | 0.00 | 0.00 | 70 | 1002.2 |
| 20260509141606 | 59 | 292 | 1.0 | 6.0 | 0.00 | 0.00 | 0.00 | 71 | 1002.3 |
| 20260509140059 | 58 | 0 | 1.0 | 5.0 | 0.00 | 0.00 | 0.00 | 73 | 1002.2 |
| 20260509134558 | 58 | 0 | 1.0 | 4.0 | 0.00 | 0.00 | 0.00 | 74 | 1002.2 |
| 20260509133050 | 57 | 0 | 0.0 | 4.0 | 0.00 | 0.00 | 0.00 | 76 | 1002.3 |
| 20260509131551 | 56 | 301 | 0.0 | 10.0 | 0.00 | 0.00 | 0.00 | 76 | 1002.3 |
| 20260509130053 | 56 | 255 | 0.0 | 4.0 | 0.00 | 0.00 | 0.00 | 77 | 1002.3 |
| 20260509124551 | 55 | 231 | 1.0 | 4.0 | 0.00 | 0.00 | 0.00 | 79 | 1002.3 |
| 20260509123054 | 54 | 230 | 0.0 | 3.0 | 0.00 | 0.00 | 0.00 | 82 | 1002.2 |
| 20260509121555 | 53 | 188 | 0.0 | 1.0 | 0.00 | 0.00 | 0.00 | 84 | 1002.1 |
| 20260509120054 | 53 | 252 | 0.0 | 4.0 | 0.00 | 0.00 | 0.00 | 86 | 1002.2 |
| 20260509114551 | 52 | 0 | 0.0 | 3.0 | 0.00 | 0.00 | 0.00 | 86 | 1002.1 |
| 20260509113053 | 52 | 0 | 0.0 | 2.0 | 0.00 | 0.00 | 0.00 | 86 | 1002.0 |
| 20260509111552 | 52 | 181 | 0.0 | 3.0 | 0.00 | 0.00 | 0.00 | 86 | 1001.6 |
| 20260509110054 | 52 | 200 | 0.0 | 4.0 | 0.00 | 0.00 | 0.00 | 86 | 1001.6 |
| 20260509104552 | 52 | 0 | 0.0 | 5.0 | 0.00 | 0.00 | 0.00 | 86 | 1001.6 |
| 20260509103056 | 52 | 231 | 0.0 | 3.0 | 0.00 | 0.00 | 0.00 | 86 | 1001.6 |
| 20260509101556 | 52 | 0 | 0.0 | 2.0 | 0.00 | 0.00 | 0.00 | 85 | 1001.8 |
| 20260509100053 | 52 | 0 | 1.0 | 3.0 | 0.00 | 0.00 | 0.00 | 85 | 1001.9 |
| 20260509094552 | 52 | 224 | 0.0 | 2.0 | 0.00 | 0.00 | 0.00 | 85 | 1002.1 |
| 20260509093057 | 52 | 0 | 0.0 | 5.0 | 0.00 | 0.00 | 0.00 | 85 | 1002.2 |
| 20260509091555 | 52 | 0 | 0.0 | 3.0 | 0.00 | 0.00 | 0.00 | 85 | 1002.4 |
| 20260509090055 | 52 | 229 | 0.0 | 1.0 | 0.00 | 0.00 | 0.00 | 84 | 1002.5 |
| 20260509084558 | 53 | 205 | 0.0 | 5.0 | 0.00 | 0.00 | 0.00 | 84 | 1002.5 |
| 20260509083056 | 53 | 0 | 0.0 | 2.0 | 0.00 | 0.00 | 0.00 | 83 | 1002.5 |
| 20260509081556 | 53 | 0 | 0.0 | 2.0 | 0.00 | 0.00 | 0.00 | 83 | 1002.4 |
| 20260509080059 | 53 | 0 | 0.0 | 3.0 | 0.00 | 0.00 | 0.00 | 82 | 1002.3 |
| 20260509074557 | 53 | 0 | 0.0 | 2.0 | 0.00 | 0.00 | 0.00 | 81 | 1002.7 |
| 20260509073052 | 53 | 0 | 0.0 | 4.0 | 0.00 | 0.00 | 0.00 | 81 | 1002.6 |
| 20260509071552 | 54 | 0 | 0.0 | 1.0 | 0.00 | 0.00 | 0.00 | 80 | 1003.0 |
| 20260509070053 | 54 | 0 | 0.0 | 1.0 | 0.00 | 0.00 | 0.00 | 79 | 1003.0 |
| 20260509064554 | 54 | 0 | 0.0 | 2.0 | 0.00 | 0.00 | 0.00 | 79 | 1003.1 |
| 20260509063053 | 55 | 0 | 0.0 | 2.0 | 0.00 | 0.00 | 0.00 | 78 | 1003.2 |
| 20260509061553 | 55 | 0 | 0.0 | 1.0 | 0.00 | 0.00 | 0.00 | 78 | 1003.3 |
| 20260509060055 | 55 | 0 | 0.0 | 4.0 | 0.00 | 0.00 | 0.00 | 78 | 1003.5 |
| 20260509054554 | 55 | 285 | 0.0 | 4.0 | 0.00 | 0.00 | 0.00 | 78 | 1003.6 |
| 20260509053058 | 56 | 0 | 0.0 | 4.0 | 0.00 | 0.00 | 0.00 | 78 | 1003.7 |
| 20260509051559 | 56 | 0 | 0.0 | 4.0 | 0.00 | 0.00 | 0.00 | 77 | 1003.5 |
| 20260509050054 | 56 | 0 | 0.0 | 4.0 | 0.00 | 0.00 | 0.00 | 76 | 1003.7 |
| 20260509044552 | 56 | 0 | 0.0 | 3.0 | 0.00 | 0.00 | 0.00 | 76 | 1003.6 |
| 20260509043050 | 57 | 0 | 0.0 | 7.0 | 0.00 | 0.00 | 0.00 | 75 | 1003.7 |
| 20260509041555 | 57 | 209 | 0.0 | 4.0 | 0.00 | 0.00 | 0.00 | 74 | 1003.7 |
| 20260509040057 | 57 | 126 | 0.0 | 3.0 | 0.00 | 0.00 | 0.00 | 73 | 1004.0 |
| 20260509034552 | 58 | 129 | 0.0 | 4.0 | 0.00 | 0.00 | 0.00 | 72 | 1003.9 |
| 20260509033101 | 58 | 174 | 0.0 | 4.0 | 0.00 | 0.00 | 0.00 | 71 | 1003.9 |
| 20260509031553 | 58 | 0 | 0.0 | 5.0 | 0.00 | 0.00 | 0.00 | 71 | 1004.0 |
| 20260509030054 | 58 | 0 | 0.0 | 5.0 | 0.00 | 0.00 | 0.00 | 70 | 1004.0 |
| 20260509024550 | 58 | 165 | 0.0 | 3.0 | 0.00 | 0.00 | 0.00 | 69 | 1004.1 |
| 20260509023101 | 57 | 151 | 0.0 | 3.0 | 0.00 | 0.00 | 0.00 | 68 | 1004.1 |
| 20260509021552 | 57 | 0 | 0.0 | 0.0 | 0.00 | 0.00 | 0.00 | 67 | 1004.2 |
| 20260509020057 | 58 | 0 | 0.0 | 1.0 | 0.00 | 0.00 | 0.00 | 66 | 1004.0 |
| 20260509014553 | 58 | 0 | 0.0 | 0.0 | 0.00 | 0.00 | 0.00 | 66 | 1003.9 |
| 20260509013055 | 59 | 0 | 0.0 | 1.0 | 0.00 | 0.00 | 0.00 | 65 | 1003.8 |
| 20260509011553 | 60 | 0 | 0.0 | 1.0 | 0.00 | 0.00 | 0.00 | 64 | 1003.7 |
| 20260509010051 | 60 | 0 | 0.0 | 0.0 | 0.00 | 0.00 | 0.00 | 63 | 1003.7 |
| 20260509004559 | 61 | 0 | 0.0 | 1.0 | 0.00 | 0.00 | 0.00 | 62 | 1003.8 |
| 20260509003051 | 62 | 0 | 0.0 | 1.0 | 0.00 | 0.00 | 0.00 | 61 | 1003.8 |
| 20260509001553 | 62 | 94 | 0.0 | 1.0 | 0.00 | 0.00 | 0.00 | 61 | 1003.8 |
| 20260509000055 | 63 | 80 | 0.0 | 1.0 | 0.00 | 0.00 | 0.00 | 60 | 1003.8 |
| 20260508234555 | 63 | 0 | 0.0 | 2.0 | 0.00 | 0.00 | 0.00 | 60 | 1004.0 |
| 20260508233112 | 64 | 60 | 0.0 | 2.0 | 0.00 | 0.00 | 0.00 | 59 | 1003.9 |
| 20260508231556 | 64 | 0 | 0.0 | 1.0 | 0.00 | 0.00 | 0.00 | 60 | 1004.0 |
| 20260508230058 | 64 | 75 | 0.0 | 2.0 | 0.00 | 0.00 | 0.00 | 61 | 1004.0 |
| 20260508224615 | 64 | 80 | 1.0 | 2.0 | 0.00 | 0.03 | 0.00 | 61 | 1004.1 |
| 20260508223052 | 64 | 0 | 0.0 | 2.0 | 0.00 | 0.03 | 0.00 | 62 | 1004.2 |